GW6548 Weather Reports


time (UTC)temp
F
wind
direction
speed
knots
gust
knots
rain 1hr
in
rain 24hr
in
rain mn
in
humidity
%
barometer
mb
20260507003031 46 0.0 0.0 0.00 0.31 0.00 96 1014.2
20260507002054 46 0.0 0.0 0.00 0.31 0.00 96 1014.2
20260507001119 46 0.0 0.0 0.00 0.31 0.00 96 1014.1
20260507000040 47 0.0 0.0 0.00 0.31 0.00 96 1014.1
20260506235143 47 0.0 0.0 0.00 0.31 0.00 95 1014.1
20260506234025 47 0.0 0.0 0.00 0.31 0.00 95 1014.2
20260506233049 47 0.0 0.0 0.00 0.31 0.00 95 1014.2
20260506232113 47 0.0 0.0 0.00 0.31 0.00 94 1014.3
20260506231113 47 0.0 0.0 0.00 0.31 0.00 94 1014.4
20260506230058 48 0.0 0.0 0.00 0.31 0.00 93 1014.3
20260506225018 48 0.0 0.0 0.00 0.31 0.00 93 1014.2
20260506224042 49 356 0.0 0.9 0.00 0.31 0.00 94 1014.3
20260506223108 49 0.0 0.0 0.00 0.31 0.00 94 1014.3
20260506222028 49 0.0 0.0 0.00 0.31 0.00 95 1014.4
20260506221052 49 0.0 0.0 0.00 0.31 0.00 95 1014.2
20260506220156 48 27 0.0 0.9 0.00 0.31 0.00 95 1014.2
20260506215037 49 69 0.0 0.9 0.00 0.31 0.31 95 1014.0
20260506214101 49 0.0 0.0 0.00 0.31 0.31 94 1014.1
20260506213102 49 0.0 0.0 0.00 0.31 0.31 94 1013.9
20260506212046 49 0.0 0.0 0.00 0.31 0.31 94 1014.0
20260506211111 49 0.0 0.0 0.00 0.31 0.31 94 1013.9
20260506210031 50 0.0 0.0 0.00 0.31 0.31 93 1013.8
20260506205135 50 0.0 0.0 0.00 0.31 0.31 93 1013.8
20260506204200 50 0.0 0.0 0.00 0.31 0.31 93 1013.9
20260506203039 50 8 0.0 0.9 0.00 0.31 0.31 92 1013.8
20260506202105 50 0.0 0.0 0.00 0.31 0.31 92 1013.6
20260506201045 50 0.0 0.0 0.00 0.31 0.31 92 1013.5
20260506200050 50 0.0 0.0 0.00 0.31 0.31 92 1013.3
20260506195114 50 0.0 0.0 0.00 0.31 0.31 92 1013.3
20260506194034 50 0.0 0.0 0.00 0.31 0.31 92 1013.2
20260506193058 50 0.0 0.0 0.00 0.31 0.31 91 1013.0
20260506192019 50 0.0 0.0 0.00 0.31 0.31 92 1012.9
20260506191043 50 0.0 0.0 0.00 0.31 0.31 92 1012.4
20260506190108 50 0.0 0.0 0.00 0.31 0.31 91 1012.3
20260506185027 50 0.0 0.0 0.00 0.31 0.31 90 1012.1
20260506184053 50 0.0 0.0 0.00 0.31 0.31 91 1012.1
20260506183156 50 0.0 0.0 0.00 0.31 0.31 91 1011.9
20260506182037 51 0.0 0.0 0.00 0.31 0.31 89 1011.8
20260506181103 51 0.0 0.0 0.00 0.31 0.31 86 1011.9
20260506180104 51 0.0 0.0 0.00 0.31 0.31 86 1012.0
20260506175047 51 101 0.0 1.7 0.00 0.31 0.31 84 1011.9
20260506174112 51 56 0.0 0.9 0.00 0.31 0.31 85 1011.7
20260506173031 51 94 1.7 5.2 0.00 0.31 0.31 85 1011.7
20260506172056 52 89 0.9 5.2 0.00 0.31 0.31 85 1011.6
20260506171017 54 26 0.0 1.7 0.00 0.31 0.31 82 1011.5
20260506170041 56 343 0.0 0.9 0.00 0.31 0.31 79 1011.4
20260506165105 55 344 0.0 0.9 0.00 0.31 0.31 79 1011.4
20260506164026 54 303 0.9 2.6 0.03 0.31 0.31 82 1011.4
20260506163050 51 313 0.9 2.6 0.05 0.31 0.31 85 1011.4
20260506162115 51 12 0.9 1.7 0.07 0.31 0.31 89 1011.5
20260506161035 51 341 0.9 2.6 0.09 0.31 0.31 91 1011.7
20260506160059 50 352 0.0 1.7 0.12 0.31 0.31 93 1011.8
20260506155100 50 10 0.9 1.7 0.12 0.31 0.31 93 1012.2
20260506154124 50 316 0.9 3.5 0.09 0.29 0.28 92 1012.2
20260506153109 50 3 0.9 3.5 0.07 0.29 0.26 91 1012.2
20260506152029 50 322 0.9 1.7 0.05 0.27 0.24 90 1012.2
20260506151054 51 301 0.9 1.7 0.03 0.25 0.22 85 1012.1
20260506150118 52 313 0.9 1.7 0.00 0.22 0.19 79 1011.7
20260506145119 53 169 0.0 1.7 0.00 0.22 0.19 71 1011.3
20260506144103 53 103 0.9 5.2 0.00 0.22 0.19 70 1010.8
20260506143022 54 117 1.7 5.2 0.00 0.22 0.19 69 1010.6
20260506142048 54 38 1.7 6.1 0.00 0.22 0.19 70 1010.7
20260506141111 53 97 3.5 11.3 0.00 0.22 0.19 72 1011.0
20260506140112 52 99 2.6 9.6 0.00 0.22 0.19 76 1011.0
20260506135057 51 88 4.3 11.3 0.00 0.22 0.19 79 1011.1
20260506134017 50 111 2.6 9.6 0.00 0.22 0.19 81 1011.2
20260506133042 50 109 1.7 7.0 0.01 0.22 0.19 84 1011.3
20260506132106 50 124 3.5 8.7 0.02 0.22 0.19 84 1011.4
20260506131027 50 96 3.5 8.7 0.04 0.22 0.19 87 1011.3
20260506130051 50 106 2.6 7.8 0.05 0.22 0.19 90 1011.4
20260506125115 50 81 2.6 8.7 0.07 0.22 0.19 91 1011.0
20260506124035 50 75 0.9 3.5 0.08 0.22 0.19 91 1011.4
20260506123100 50 87 0.9 3.5 0.07 0.21 0.18 91 1011.3
20260506122020 50 91 1.7 3.5 0.07 0.20 0.17 92 1011.4
20260506121045 51 85 0.9 1.7 0.06 0.18 0.15 91 1011.4
20260506120109 51 74 0.0 0.9 0.06 0.17 0.14 89 1011.1
20260506115030 50 0.0 0.0 0.06 0.15 0.12 88 1011.1
20260506114054 50 58 0.0 0.9 0.06 0.14 0.11 91 1010.9
20260506113159 50 0.0 0.0 0.07 0.14 0.11 92 1010.8
20260506112039 50 0.0 0.9 0.06 0.13 0.10 92 1010.7
20260506111103 50 18 0.0 0.9 0.05 0.12 0.09 92 1010.6
20260506110024 50 0.0 0.9 0.04 0.11 0.08 92 1010.4
20260506105049 50 2 0.0 0.9 0.02 0.09 0.06 90 1010.2
20260506104112 51 353 0.9 1.7 0.01 0.08 0.05 88 1010.1
20260506103033 51 18 0.0 2.6 0.00 0.07 0.04 88 1010.0
20260506102137 52 8 0.9 3.5 0.00 0.07 0.04 88 1009.9
20260506101018 53 278 0.9 2.6 0.00 0.07 0.04 84 1009.7
20260506100042 53 0.0 0.0 0.00 0.07 0.04 83 1009.6
20260506095106 52 66 0.9 2.6 0.01 0.07 0.04 82 1009.7
20260506094027 52 122 1.7 5.2 0.01 0.07 0.04 82 1009.7
20260506093052 52 117 0.9 5.2 0.01 0.07 0.04 82 1009.3
20260506092116 52 75 0.0 1.7 0.01 0.07 0.04 83 1009.2
20260506091036 52 110 2.6 6.1 0.01 0.07 0.04 82 1009.1
20260506090100 52 111 0.9 2.6 0.01 0.07 0.04 83 1008.9
20260506085021 53 96 1.7 3.5 0.00 0.06 0.03 82 1008.6
20260506084045 53 29 0.9 3.5 0.00 0.06 0.03 82 1008.6
20260506083110 53 0.0 0.0 0.00 0.06 0.03 85 1008.5
20260506082030 53 1 0.0 0.9 0.00 0.06 0.03 88 1008.3
20260506081055 52 286 0.9 3.5 0.01 0.06 0.03 89 1008.3
20260506080159 52 315 0.9 1.7 0.02 0.06 0.03 90 1008.3
20260506073025 52 4 0.0 0.9 0.03 0.06 0.03 92 1008.2
20260506072049 52 263 0.9 1.7 0.03 0.06 0.03 91 1008.2
20260506071114 52 7 0.0 1.7 0.02 0.05 0.02 91 1008.0
20260506070113 51 0.0 0.0 0.01 0.04 0.01 91 1008.1
20260506062107 51 27 0.0 0.9 0.00 0.03 0.00 91 1007.8
20260506061027 51 0.0 0.9 0.00 0.03 0.00 91 1007.7
20260506051046 50 0.0 0.0 0.00 0.03 0.00 92 1007.9
20260506050111 50 0.0 0.0 0.00 0.03 0.00 92 1008.1
20260506045032 50 0.0 0.0 0.00 0.03 0.00 92 1008.1
20260506044055 50 0.0 0.0 0.00 0.03 0.00 92 1008.1
20260506043119 50 346 0.9 1.7 0.00 0.03 0.00 92 1008.2
20260506042040 50 3 0.0 2.6 0.00 0.03 0.00 93 1008.3
20260506041104 50 356 0.0 1.7 0.00 0.03 0.00 94 1008.4
20260506040025 50 0.0 1.7 0.00 0.03 0.00 93 1008.2
20260506035049 50 0.0 1.7 0.00 0.03 0.00 92 1008.2
20260506034115 51 0.0 0.0 0.00 0.03 0.00 90 1008.4
20260506033034 52 0.0 0.0 0.00 0.03 0.00 87 1008.6
20260506032059 52 84 0.0 1.7 0.00 0.03 0.00 85 1008.8
20260506031019 52 0.0 0.9 0.00 0.03 0.00 85 1009.1
20260506030044 52 17 0.0 0.9 0.00 0.03 0.00 86 1009.1
20260506025107 52 7 0.9 1.7 0.00 0.03 0.00 86 1009.4
20260506024029 51 17 0.0 1.7 0.00 0.03 0.00 89 1009.6
20260506023052 51 0.0 0.0 0.00 0.03 0.00 91 1009.8
20260506022118 51 0.0 0.0 0.00 0.03 0.00 91 1010.0
20260506021037 51 0.0 0.0 0.00 0.03 0.00 91 1010.3
20260506015103 51 77 0.0 0.9 0.00 0.03 0.00 89 1010.7
20260506014047 52 120 0.0 1.7 0.00 0.03 0.00 89 1010.7
20260506013112 51 0.0 0.9 0.00 0.03 0.00 90 1010.8
20260506012032 52 78 0.0 0.9 0.00 0.03 0.00 90 1010.6
20260506011056 52 0.0 0.0 0.00 0.03 0.00 90 1010.9
20260506010017 52 0.0 0.0 0.00 0.03 0.00 90 1010.8
20260506005041 52 56 0.0 0.9 0.00 0.03 0.00 90 1010.9
20260506004105 51 73 0.9 1.7 0.00 0.03 0.00 91 1011.3